| time (UTC) | temp F | wind direction | speed MPH | gust MPH | rain 1hr in | rain 24hr in | rain mn in | humidity % | barometer mb |
| 20260507211545 | 64 | 293 | 2.0 | 7.0 | 0.00 | 0.00 | 0.00 | 38 | 1013.5 |
| 20260507211019 | 64 | 253 | 3.0 | 6.0 | 0.00 | 0.00 | 0.00 | 40 | 1013.6 |
| 20260507210520 | 64 | 256 | 2.0 | 5.0 | 0.00 | 0.00 | 0.00 | 37 | 1013.6 |
| 20260507205520 | 64 | 298 | 2.0 | 8.0 | 0.00 | 0.00 | 0.00 | 47 | 1013.7 |
| 20260507205018 | 64 | 291 | 4.0 | 8.0 | 0.00 | 0.00 | 0.00 | 39 | 1013.7 |
| 20260507204545 | 63 | 260 | 3.0 | 8.0 | 0.00 | 0.00 | 0.00 | 40 | 1013.7 |
| 20260507204020 | 63 | 281 | 3.0 | 9.0 | 0.00 | 0.00 | 0.00 | 43 | 1013.8 |
| 20260507203520 | 62 | 275 | 3.0 | 9.0 | 0.00 | 0.00 | 0.00 | 41 | 1013.8 |
| 20260507203039 | 62 | 297 | 3.0 | 9.0 | 0.00 | 0.00 | 0.00 | 42 | 1013.9 |
| 20260507202519 | 62 | 295 | 3.0 | 7.0 | 0.00 | 0.00 | 0.00 | 43 | 1013.9 |
| 20260507202019 | 63 | 320 | 2.0 | 7.0 | 0.00 | 0.00 | 0.00 | 48 | 1013.9 |
| 20260507201538 | 62 | 323 | 2.0 | 8.0 | 0.00 | 0.00 | 0.00 | 43 | 1013.9 |
| 20260507201017 | 61 | 329 | 1.0 | 8.0 | 0.00 | 0.00 | 0.00 | 41 | 1014.1 |
| 20260507200519 | 62 | 350 | 3.0 | 8.0 | 0.00 | 0.00 | 0.00 | 39 | 1014.2 |
| 20260507200043 | 62 | 355 | 1.0 | 8.0 | 0.00 | 0.00 | 0.00 | 38 | 1014.2 |
| 20260507195519 | 63 | 280 | 3.0 | 10.0 | 0.00 | 0.00 | 0.00 | 44 | 1014.2 |
| 20260507195020 | 63 | 265 | 3.0 | 10.0 | 0.00 | 0.00 | 0.00 | 46 | 1014.3 |
| 20260507194549 | 62 | 283 | 1.0 | 9.0 | 0.00 | 0.00 | 0.00 | 44 | 1014.3 |
| 20260507194020 | 62 | 329 | 3.0 | 11.0 | 0.00 | 0.00 | 0.00 | 37 | 1014.4 |
| 20260507193519 | 62 | 311 | 2.0 | 11.0 | 0.00 | 0.00 | 0.00 | 44 | 1014.4 |
| 20260507193041 | 61 | 287 | 3.0 | 11.0 | 0.00 | 0.00 | 0.00 | 45 | 1014.4 |
| 20260507192521 | 60 | 348 | 3.0 | 12.0 | 0.00 | 0.00 | 0.00 | 40 | 1014.5 |
| 20260507192020 | 60 | 317 | 5.0 | 12.0 | 0.00 | 0.00 | 0.00 | 40 | 1014.5 |
| 20260507191544 | 61 | 10 | 4.0 | 9.0 | 0.00 | 0.00 | 0.00 | 44 | 1014.6 |
| 20260507191022 | 61 | 327 | 2.0 | 9.0 | 0.00 | 0.00 | 0.00 | 42 | 1014.8 |
| 20260507190519 | 61 | 360 | 3.0 | 9.0 | 0.00 | 0.00 | 0.00 | 39 | 1014.7 |
| 20260507190047 | 62 | 337 | 3.0 | 9.0 | 0.00 | 0.00 | 0.00 | 38 | 1014.7 |
| 20260507185523 | 62 | 311 | 3.0 | 10.0 | 0.00 | 0.00 | 0.00 | 47 | 1014.7 |
| 20260507185020 | 62 | 281 | 3.0 | 10.0 | 0.00 | 0.00 | 0.00 | 41 | 1014.6 |
| 20260507184543 | 61 | 321 | 4.0 | 9.0 | 0.00 | 0.00 | 0.00 | 42 | 1014.7 |
| 20260507184019 | 61 | 351 | 3.0 | 10.0 | 0.00 | 0.00 | 0.00 | 44 | 1014.7 |
| 20260507183520 | 61 | 270 | 4.0 | 10.0 | 0.00 | 0.00 | 0.00 | 46 | 1014.7 |
| 20260507183053 | 60 | 269 | 3.0 | 9.0 | 0.00 | 0.00 | 0.00 | 44 | 1014.8 |
| 20260507182519 | 58 | 292 | 3.0 | 9.0 | 0.00 | 0.00 | 0.00 | 47 | 1014.7 |
| 20260507182019 | 58 | 314 | 3.0 | 11.0 | 0.00 | 0.00 | 0.00 | 45 | 1014.7 |
| 20260507181541 | 58 | 16 | 4.0 | 11.0 | 0.00 | 0.00 | 0.00 | 41 | 1014.6 |
| 20260507181020 | 60 | 355 | 4.0 | 10.0 | 0.00 | 0.00 | 0.00 | 41 | 1014.9 |
| 20260507180520 | 60 | 328 | 4.0 | 8.0 | 0.00 | 0.00 | 0.00 | 50 | 1015.0 |
| 20260507180038 | 61 | 310 | 3.0 | 10.0 | 0.00 | 0.00 | 0.00 | 46 | 1015.0 |
| 20260507175519 | 60 | 298 | 4.0 | 10.0 | 0.00 | 0.00 | 0.00 | 49 | 1015.1 |
| 20260507175020 | 60 | 292 | 3.0 | 9.0 | 0.00 | 0.00 | 0.00 | 49 | 1015.1 |
| 20260507174539 | 59 | 342 | 2.0 | 10.0 | 0.00 | 0.00 | 0.00 | 46 | 1015.0 |
| 20260507174020 | 59 | 281 | 4.0 | 10.0 | 0.00 | 0.00 | 0.00 | 47 | 1015.1 |
| 20260507173521 | 58 | 311 | 2.0 | 11.0 | 0.00 | 0.00 | 0.00 | 53 | 1015.1 |
| 20260507173044 | 58 | 330 | 4.0 | 12.0 | 0.00 | 0.00 | 0.00 | 48 | 1015.5 |
| 20260507172519 | 58 | 286 | 4.0 | 12.0 | 0.00 | 0.00 | 0.00 | 44 | 1015.4 |
| 20260507172021 | 59 | 333 | 5.0 | 12.0 | 0.00 | 0.00 | 0.00 | 44 | 1015.5 |
| 20260507171540 | 59 | 340 | 3.0 | 10.0 | 0.00 | 0.00 | 0.00 | 46 | 1015.5 |
| 20260507171019 | 59 | 297 | 4.0 | 10.0 | 0.00 | 0.00 | 0.00 | 45 | 1015.6 |
| 20260507170520 | 59 | 318 | 4.0 | 9.0 | 0.00 | 0.00 | 0.00 | 45 | 1015.6 |
| 20260507170042 | 58 | 311 | 3.0 | 9.0 | 0.00 | 0.00 | 0.00 | 52 | 1015.7 |
| 20260507165519 | 58 | 287 | 3.0 | 8.0 | 0.00 | 0.00 | 0.00 | 51 | 1015.8 |
| 20260507165019 | 58 | 289 | 3.0 | 7.0 | 0.00 | 0.00 | 0.00 | 47 | 1015.8 |
| 20260507164548 | 58 | 334 | 3.0 | 6.0 | 0.00 | 0.00 | 0.00 | 50 | 1015.8 |
| 20260507164020 | 57 | 278 | 3.0 | 13.0 | 0.00 | 0.00 | 0.00 | 50 | 1015.8 |
| 20260507163525 | 57 | 349 | 3.0 | 13.0 | 0.00 | 0.00 | 0.00 | 46 | 1015.9 |
| 20260507163038 | 56 | 285 | 2.0 | 10.0 | 0.00 | 0.00 | 0.00 | 48 | 1015.9 |
| 20260507162522 | 56 | 329 | 3.0 | 12.0 | 0.00 | 0.00 | 0.00 | 52 | 1016.0 |
| 20260507162019 | 56 | 360 | 2.0 | 12.0 | 0.00 | 0.00 | 0.00 | 49 | 1016.0 |
| 20260507161549 | 56 | 315 | 5.0 | 12.0 | 0.00 | 0.00 | 0.00 | 46 | 1015.9 |
| 20260507161019 | 55 | 355 | 3.0 | 9.0 | 0.00 | 0.00 | 0.00 | 49 | 1016.0 |
| 20260507160520 | 55 | 302 | 3.0 | 11.0 | 0.00 | 0.00 | 0.00 | 51 | 1016.0 |
| 20260507160039 | 55 | 324 | 3.0 | 13.0 | 0.00 | 0.00 | 0.00 | 48 | 1016.0 |
| 20260507155520 | 55 | 347 | 5.0 | 13.0 | 0.00 | 0.00 | 0.00 | 49 | 1016.0 |
| 20260507155020 | 55 | 24 | 5.0 | 12.0 | 0.00 | 0.00 | 0.00 | 52 | 1016.0 |
| 20260507154539 | 55 | 15 | 5.0 | 12.0 | 0.00 | 0.00 | 0.00 | 44 | 1016.0 |
| 20260507154019 | 55 | 292 | 3.0 | 10.0 | 0.00 | 0.00 | 0.00 | 52 | 1016.0 |
| 20260507153519 | 54 | 331 | 5.0 | 12.0 | 0.00 | 0.00 | 0.00 | 48 | 1016.0 |
| 20260507153042 | 54 | 323 | 3.0 | 12.0 | 0.00 | 0.00 | 0.00 | 51 | 1016.0 |
| 20260507152522 | 54 | 308 | 4.0 | 11.0 | 0.00 | 0.00 | 0.00 | 49 | 1015.9 |
| 20260507152021 | 53 | 288 | 5.0 | 12.0 | 0.00 | 0.00 | 0.00 | 50 | 1016.0 |
| 20260507151538 | 54 | 9 | 3.0 | 12.0 | 0.00 | 0.00 | 0.00 | 54 | 1016.0 |
| 20260507151019 | 54 | 298 | 4.0 | 9.0 | 0.00 | 0.00 | 0.00 | 49 | 1016.0 |
| 20260507150519 | 54 | 311 | 3.0 | 10.0 | 0.00 | 0.00 | 0.00 | 53 | 1015.9 |
| 20260507150036 | 53 | 275 | 3.0 | 10.0 | 0.00 | 0.00 | 0.00 | 53 | 1015.9 |
| 20260507145520 | 53 | 300 | 4.0 | 8.0 | 0.00 | 0.00 | 0.00 | 49 | 1015.8 |
| 20260507145025 | 53 | 315 | 3.0 | 7.0 | 0.00 | 0.00 | 0.00 | 53 | 1015.9 |
| 20260507144540 | 53 | 298 | 3.0 | 7.0 | 0.00 | 0.00 | 0.00 | 53 | 1015.9 |
| 20260507144022 | 53 | 277 | 2.0 | 6.0 | 0.00 | 0.00 | 0.00 | 55 | 1015.8 |
| 20260507143520 | 52 | 283 | 2.0 | 6.0 | 0.00 | 0.00 | 0.00 | 56 | 1015.8 |
| 20260507143041 | 52 | 297 | 2.0 | 8.0 | 0.00 | 0.00 | 0.00 | 55 | 1015.9 |
| 20260507142520 | 52 | 286 | 3.0 | 9.0 | 0.00 | 0.00 | 0.00 | 54 | 1015.9 |
| 20260507142020 | 51 | 296 | 2.0 | 9.0 | 0.00 | 0.00 | 0.00 | 55 | 1015.8 |
| 20260507141536 | 51 | 270 | 4.0 | 9.0 | 0.00 | 0.00 | 0.00 | 50 | 1015.8 |
| 20260507141020 | 51 | 290 | 3.0 | 6.0 | 0.00 | 0.00 | 0.00 | 54 | 1015.8 |
| 20260507140520 | 51 | 302 | 2.0 | 5.0 | 0.00 | 0.00 | 0.00 | 53 | 1015.9 |
| 20260507140039 | 51 | 277 | 1.0 | 4.0 | 0.00 | 0.00 | 0.00 | 57 | 1015.9 |
| 20260507135520 | 50 | 292 | 2.0 | 4.0 | 0.00 | 0.00 | 0.00 | 57 | 1016.0 |
| 20260507135023 | 50 | 317 | 2.0 | 5.0 | 0.00 | 0.00 | 0.00 | 60 | 1015.9 |
| 20260507134540 | 50 | 284 | 1.0 | 5.0 | 0.00 | 0.00 | 0.00 | 59 | 1015.9 |
| 20260507134019 | 49 | 292 | 1.0 | 5.0 | 0.00 | 0.00 | 0.00 | 59 | 1015.9 |
| 20260507133520 | 49 | 330 | 1.0 | 5.0 | 0.00 | 0.00 | 0.00 | 67 | 1015.9 |
| 20260507133046 | 48 | 355 | 1.0 | 4.0 | 0.00 | 0.00 | 0.00 | 63 | 1015.9 |
| 20260507132519 | 48 | 352 | 2.0 | 4.0 | 0.00 | 0.00 | 0.00 | 65 | 1015.9 |
| 20260507132019 | 48 | 284 | 2.0 | 4.0 | 0.00 | 0.00 | 0.00 | 67 | 1015.8 |
| 20260507131540 | 47 | 288 | 1.0 | 3.0 | 0.00 | 0.00 | 0.00 | 67 | 1016.0 |
| 20260507131020 | 47 | 288 | 1.0 | 4.0 | 0.00 | 0.00 | 0.00 | 67 | 1015.9 |
| 20260507130522 | 47 | 286 | 2.0 | 4.0 | 0.00 | 0.00 | 0.00 | 69 | 1015.9 |
| 20260507130042 | 46 | 0 | 1.0 | 4.0 | 0.00 | 0.00 | 0.00 | 73 | 1015.9 |
| 20260507125520 | 46 | 286 | 1.0 | 4.0 | 0.00 | 0.00 | 0.00 | 70 | 1015.9 |
| 20260507125018 | 45 | 284 | 1.0 | 4.0 | 0.00 | 0.00 | 0.00 | 71 | 1015.8 |
| 20260507124540 | 45 | 281 | 1.0 | 4.0 | 0.00 | 0.00 | 0.00 | 73 | 1015.8 |
| 20260507124024 | 45 | 276 | 1.0 | 4.0 | 0.00 | 0.00 | 0.00 | 73 | 1015.8 |
| 20260507123522 | 44 | 276 | 1.0 | 4.0 | 0.00 | 0.00 | 0.00 | 74 | 1015.7 |
| 20260507123042 | 44 | 282 | 1.0 | 3.0 | 0.00 | 0.00 | 0.00 | 75 | 1015.7 |
| 20260507122519 | 44 | 288 | 1.0 | 3.0 | 0.00 | 0.00 | 0.00 | 76 | 1015.9 |
| 20260507122018 | 43 | 289 | 1.0 | 3.0 | 0.00 | 0.00 | 0.00 | 76 | 1015.6 |
| 20260507121539 | 43 | 0 | 0.0 | 2.0 | 0.00 | 0.00 | 0.00 | 77 | 1015.6 |
| 20260507121020 | 42 | 289 | 0.0 | 2.0 | 0.00 | 0.00 | 0.00 | 77 | 1015.5 |
| 20260507120523 | 42 | 289 | 0.0 | 2.0 | 0.00 | 0.00 | 0.00 | 78 | 1015.5 |
| 20260507120038 | 41 | 0 | 0.0 | 0.0 | 0.00 | 0.00 | 0.00 | 79 | 1015.5 |
| 20260507115521 | 41 | 0 | 0.0 | 0.0 | 0.00 | 0.00 | 0.00 | 80 | 1015.6 |
| 20260507115024 | 40 | 0 | 0.0 | 0.0 | 0.00 | 0.00 | 0.00 | 80 | 1015.6 |
| 20260507114554 | 40 | 0 | 0.0 | 0.0 | 0.00 | 0.00 | 0.00 | 80 | 1015.5 |
| 20260507114023 | 39 | 0 | 0.0 | 0.0 | 0.00 | 0.00 | 0.00 | 81 | 1015.5 |
| 20260507113520 | 39 | 0 | 0.0 | 0.0 | 0.00 | 0.00 | 0.00 | 81 | 1015.4 |
| 20260507113102 | 39 | 0 | 0.0 | 0.0 | 0.00 | 0.00 | 0.00 | 82 | 1015.4 |
| 20260507112520 | 39 | 0 | 0.0 | 0.0 | 0.00 | 0.00 | 0.00 | 83 | 1015.3 |
| 20260507112019 | 38 | 0 | 0.0 | 0.0 | 0.00 | 0.00 | 0.00 | 83 | 1015.3 |
| 20260507111544 | 38 | 0 | 0.0 | 0.0 | 0.00 | 0.00 | 0.00 | 83 | 1015.4 |
| 20260507111019 | 38 | 0 | 0.0 | 0.0 | 0.00 | 0.00 | 0.00 | 83 | 1015.3 |
| 20260507110519 | 38 | 0 | 0.0 | 1.0 | 0.00 | 0.00 | 0.00 | 83 | 1015.4 |
| 20260507110040 | 38 | 0 | 0.0 | 1.0 | 0.00 | 0.00 | 0.00 | 82 | 1015.4 |
| 20260507105521 | 38 | 0 | 0.0 | 0.0 | 0.00 | 0.00 | 0.00 | 82 | 1015.5 |
| 20260507105019 | 38 | 0 | 0.0 | 0.0 | 0.00 | 0.00 | 0.00 | 82 | 1015.4 |
| 20260507104542 | 38 | 0 | 0.0 | 0.0 | 0.00 | 0.00 | 0.00 | 81 | 1015.4 |
| 20260507104022 | 38 | 0 | 0.0 | 0.0 | 0.00 | 0.00 | 0.00 | 81 | 1015.4 |
| 20260507103520 | 38 | 0 | 0.0 | 0.0 | 0.00 | 0.00 | 0.00 | 81 | 1015.3 |
| 20260507103039 | 38 | 0 | 0.0 | 0.0 | 0.00 | 0.00 | 0.00 | 81 | 1015.2 |
| 20260507102520 | 38 | 0 | 0.0 | 0.0 | 0.00 | 0.00 | 0.00 | 81 | 1015.2 |
| 20260507102020 | 38 | 0 | 0.0 | 0.0 | 0.00 | 0.00 | 0.00 | 81 | 1015.1 |
| 20260507101534 | 38 | 0 | 0.0 | 0.0 | 0.00 | 0.00 | 0.00 | 81 | 1015.1 |
| 20260507101023 | 38 | 0 | 0.0 | 0.0 | 0.00 | 0.00 | 0.00 | 81 | 1015.2 |
| 20260507100519 | 38 | 0 | 0.0 | 0.0 | 0.00 | 0.00 | 0.00 | 80 | 1015.1 |
| 20260507100040 | 38 | 0 | 0.0 | 0.0 | 0.00 | 0.00 | 0.00 | 80 | 1015.1 |
| 20260507095521 | 39 | 0 | 0.0 | 0.0 | 0.00 | 0.00 | 0.00 | 80 | 1015.1 |
| 20260507095019 | 39 | 0 | 0.0 | 0.0 | 0.00 | 0.00 | 0.00 | 80 | 1015.1 |
| 20260507094542 | 39 | 0 | 0.0 | 0.0 | 0.00 | 0.00 | 0.00 | 80 | 1015.1 |
| 20260507094019 | 39 | 0 | 0.0 | 0.0 | 0.00 | 0.00 | 0.00 | 80 | 1015.0 |
| 20260507093520 | 39 | 0 | 0.0 | 0.0 | 0.00 | 0.00 | 0.00 | 79 | 1015.0 |
| 20260507093039 | 39 | 0 | 0.0 | 0.0 | 0.00 | 0.00 | 0.00 | 79 | 1015.0 |
| 20260507092520 | 40 | 0 | 0.0 | 0.0 | 0.00 | 0.00 | 0.00 | 79 | 1015.1 |
| 20260507092020 | 40 | 0 | 0.0 | 0.0 | 0.00 | 0.00 | 0.00 | 78 | 1015.2 |
| 20260507091537 | 40 | 0 | 0.0 | 0.0 | 0.00 | 0.00 | 0.00 | 77 | 1015.2 |
| 20260507091020 | 41 | 0 | 0.0 | 0.0 | 0.00 | 0.00 | 0.00 | 77 | 1015.3 |
| 20260507090521 | 41 | 0 | 0.0 | 0.0 | 0.00 | 0.00 | 0.00 | 77 | 1015.1 |
| 20260507090042 | 41 | 0 | 0.0 | 0.0 | 0.00 | 0.00 | 0.00 | 76 | 1015.1 |
| 20260507085521 | 41 | 0 | 0.0 | 0.0 | 0.00 | 0.00 | 0.00 | 76 | 1015.1 |
| 20260507085021 | 41 | 0 | 0.0 | 0.0 | 0.00 | 0.00 | 0.00 | 76 | 1015.0 |
| 20260507084545 | 42 | 0 | 0.0 | 0.0 | 0.00 | 0.00 | 0.00 | 76 | 1015.0 |
| 20260507084019 | 42 | 0 | 0.0 | 0.0 | 0.00 | 0.00 | 0.00 | 76 | 1015.1 |
| 20260507083519 | 42 | 0 | 0.0 | 0.0 | 0.00 | 0.00 | 0.00 | 76 | 1015.0 |
| 20260507083039 | 42 | 0 | 0.0 | 0.0 | 0.00 | 0.00 | 0.00 | 76 | 1015.0 |
| 20260507082520 | 42 | 0 | 0.0 | 0.0 | 0.00 | 0.00 | 0.00 | 76 | 1015.0 |
| 20260507082019 | 42 | 0 | 0.0 | 0.0 | 0.00 | 0.00 | 0.00 | 76 | 1014.9 |
| 20260507081544 | 42 | 0 | 0.0 | 0.0 | 0.00 | 0.00 | 0.00 | 76 | 1014.9 |
| 20260507081019 | 42 | 0 | 0.0 | 0.0 | 0.00 | 0.00 | 0.00 | 76 | 1014.9 |
| 20260507080520 | 43 | 0 | 0.0 | 0.0 | 0.00 | 0.00 | 0.00 | 76 | 1014.9 |
| 20260507080034 | 43 | 0 | 0.0 | 0.0 | 0.00 | 0.00 | 0.00 | 76 | 1014.9 |
| 20260507075520 | 43 | 0 | 0.0 | 0.0 | 0.00 | 0.01 | 0.00 | 77 | 1014.8 |
| 20260507075021 | 43 | 0 | 0.0 | 0.0 | 0.00 | 0.01 | 0.00 | 77 | 1014.9 |
| 20260507074536 | 43 | 0 | 0.0 | 0.0 | 0.00 | 0.01 | 0.00 | 77 | 1014.9 |
| 20260507074020 | 43 | 0 | 0.0 | 0.0 | 0.00 | 0.01 | 0.00 | 77 | 1014.9 |
| 20260507073521 | 43 | 0 | 0.0 | 0.0 | 0.00 | 0.01 | 0.00 | 77 | 1014.9 |
| 20260507073040 | 43 | 0 | 0.0 | 0.0 | 0.00 | 0.01 | 0.00 | 77 | 1014.9 |
| 20260507072522 | 43 | 0 | 0.0 | 0.0 | 0.00 | 0.01 | 0.00 | 77 | 1015.0 |
| 20260507072020 | 43 | 0 | 0.0 | 0.0 | 0.00 | 0.01 | 0.00 | 77 | 1014.9 |
| 20260507071538 | 43 | 0 | 0.0 | 1.0 | 0.00 | 0.01 | 0.00 | 76 | 1015.0 |
| 20260507071016 | 43 | 0 | 0.0 | 1.0 | 0.00 | 0.01 | 0.00 | 76 | 1015.0 |
| 20260507070519 | 44 | 0 | 0.0 | 2.0 | 0.00 | 0.01 | 0.00 | 76 | 1015.0 |
| 20260507070039 | 44 | 0 | 0.0 | 2.0 | 0.00 | 0.01 | 0.00 | 76 | 1015.0 |
| 20260507065522 | 44 | 0 | 0.0 | 2.0 | 0.00 | 0.05 | 0.00 | 77 | 1015.0 |
| 20260507065020 | 44 | 289 | 0.0 | 2.0 | 0.00 | 0.05 | 0.00 | 77 | 1015.0 |
| 20260507064539 | 43 | 289 | 1.0 | 2.0 | 0.00 | 0.05 | 0.00 | 77 | 1015.1 |
| 20260507064020 | 43 | 289 | 1.0 | 2.0 | 0.00 | 0.05 | 0.00 | 79 | 1015.1 |
| 20260507063519 | 43 | 289 | 0.0 | 3.0 | 0.00 | 0.05 | 0.00 | 80 | 1015.2 |
| 20260507063043 | 43 | 289 | 1.0 | 3.0 | 0.00 | 0.05 | 0.00 | 80 | 1015.2 |
| 20260507062521 | 43 | 0 | 0.0 | 2.0 | 0.00 | 0.05 | 0.00 | 80 | 1015.2 |
| 20260507062018 | 43 | 0 | 0.0 | 1.0 | 0.00 | 0.05 | 0.00 | 80 | 1015.2 |
| 20260507061542 | 43 | 289 | 0.0 | 1.0 | 0.00 | 0.05 | 0.00 | 79 | 1015.2 |
| 20260507061017 | 43 | 0 | 0.0 | 2.0 | 0.00 | 0.05 | 0.00 | 79 | 1015.2 |
| 20260507060517 | 43 | 0 | 0.0 | 2.0 | 0.00 | 0.05 | 0.00 | 79 | 1015.2 |
| 20260507060039 | 43 | 289 | 0.0 | 2.0 | 0.00 | 0.05 | 0.00 | 79 | 1015.2 |
| 20260507055518 | 43 | 289 | 0.0 | 2.0 | 0.00 | 0.09 | 0.00 | 79 | 1015.1 |
| 20260507055021 | 43 | 289 | 0.0 | 1.0 | 0.00 | 0.09 | 0.00 | 78 | 1015.2 |
| 20260507054539 | 43 | 0 | 0.0 | 1.0 | 0.00 | 0.09 | 0.00 | 78 | 1015.1 |
| 20260507054018 | 43 | 0 | 0.0 | 1.0 | 0.00 | 0.09 | 0.00 | 77 | 1015.1 |
| 20260507053520 | 44 | 0 | 0.0 | 0.0 | 0.00 | 0.09 | 0.00 | 77 | 1015.1 |
| 20260507053035 | 44 | 0 | 0.0 | 0.0 | 0.00 | 0.09 | 0.00 | 77 | 1015.1 |
| 20260507052520 | 44 | 0 | 0.0 | 0.0 | 0.00 | 0.09 | 0.00 | 78 | 1015.1 |
| 20260507052019 | 44 | 0 | 0.0 | 0.0 | 0.00 | 0.09 | 0.00 | 77 | 1015.2 |
| 20260507051533 | 44 | 0 | 0.0 | 0.0 | 0.00 | 0.09 | 0.00 | 77 | 1015.1 |
| 20260507051041 | 44 | 0 | 0.0 | 1.0 | 0.00 | 0.09 | 0.00 | 77 | 1015.2 |
| 20260507050517 | 44 | 0 | 0.0 | 1.0 | 0.00 | 0.09 | 0.00 | 78 | 1015.1 |
| 20260507050042 | 44 | 0 | 0.0 | 1.0 | 0.00 | 0.09 | 0.00 | 78 | 1015.1 |
| 20260507045524 | 44 | 0 | 0.0 | 0.0 | 0.00 | 0.21 | 0.00 | 78 | 1015.1 |
| 20260507045020 | 44 | 0 | 0.0 | 0.0 | 0.00 | 0.21 | 0.00 | 78 | 1015.1 |
| 20260507044539 | 44 | 0 | 0.0 | 0.0 | 0.00 | 0.21 | 0.00 | 78 | 1015.1 |
| 20260507044017 | 45 | 0 | 0.0 | 1.0 | 0.00 | 0.21 | 0.00 | 77 | 1015.1 |
| 20260507043518 | 45 | 0 | 0.0 | 1.0 | 0.00 | 0.21 | 0.00 | 77 | 1015.1 |
| 20260507043053 | 45 | 0 | 0.0 | 1.0 | 0.00 | 0.21 | 0.00 | 77 | 1015.2 |
| 20260507042521 | 46 | 0 | 0.0 | 1.0 | 0.00 | 0.21 | 0.00 | 75 | 1015.1 |
| 20260507042019 | 46 | 0 | 0.0 | 1.0 | 0.00 | 0.21 | 0.00 | 74 | 1015.1 |
| 20260507041539 | 46 | 0 | 0.0 | 1.0 | 0.00 | 0.21 | 0.00 | 74 | 1014.9 |
| 20260507041019 | 46 | 0 | 0.0 | 1.0 | 0.00 | 0.21 | 0.00 | 75 | 1014.9 |
| 20260507040520 | 47 | 0 | 0.0 | 1.0 | 0.00 | 0.21 | 0.00 | 75 | 1014.9 |
| 20260507040034 | 47 | 0 | 0.0 | 1.0 | 0.00 | 0.21 | 0.00 | 75 | 1014.9 |
| 20260507035520 | 47 | 0 | 0.0 | 1.0 | 0.00 | 0.36 | 0.21 | 75 | 1015.0 |
| 20260507035018 | 47 | 0 | 0.0 | 1.0 | 0.00 | 0.36 | 0.21 | 74 | 1015.0 |
| 20260507034541 | 47 | 0 | 0.0 | 1.0 | 0.00 | 0.36 | 0.21 | 74 | 1015.1 |
| 20260507034020 | 47 | 0 | 0.0 | 2.0 | 0.00 | 0.36 | 0.21 | 75 | 1015.0 |
| 20260507033519 | 47 | 0 | 0.0 | 2.0 | 0.00 | 0.36 | 0.21 | 75 | 1015.0 |
| 20260507033039 | 47 | 0 | 0.0 | 2.0 | 0.00 | 0.36 | 0.21 | 75 | 1015.0 |
| 20260507032520 | 47 | 0 | 0.0 | 2.0 | 0.00 | 0.36 | 0.21 | 74 | 1015.0 |
| 20260507032019 | 47 | 289 | 0.0 | 2.0 | 0.00 | 0.36 | 0.21 | 74 | 1015.0 |
| 20260507031545 | 47 | 0 | 0.0 | 0.0 | 0.00 | 0.36 | 0.21 | 74 | 1014.9 |
| 20260507031020 | 48 | 0 | 0.0 | 0.0 | 0.00 | 0.36 | 0.21 | 73 | 1015.0 |
| 20260507030524 | 48 | 0 | 0.0 | 0.0 | 0.00 | 0.36 | 0.21 | 72 | 1014.9 |
| 20260507030041 | 48 | 0 | 0.0 | 0.0 | 0.00 | 0.36 | 0.21 | 73 | 1014.9 |
| 20260507025520 | 49 | 0 | 0.0 | 0.0 | 0.00 | 0.50 | 0.21 | 73 | 1014.9 |
| 20260507025021 | 49 | 0 | 0.0 | 0.0 | 0.00 | 0.50 | 0.21 | 72 | 1014.9 |
| 20260507024535 | 49 | 0 | 0.0 | 0.0 | 0.00 | 0.50 | 0.21 | 72 | 1015.0 |
| 20260507024018 | 49 | 0 | 0.0 | 0.0 | 0.00 | 0.50 | 0.21 | 72 | 1014.9 |
| 20260507023522 | 49 | 0 | 0.0 | 0.0 | 0.00 | 0.50 | 0.21 | 72 | 1014.9 |
| 20260507023034 | 49 | 0 | 0.0 | 0.0 | 0.00 | 0.50 | 0.21 | 72 | 1014.9 |
| 20260507022519 | 49 | 0 | 0.0 | 1.0 | 0.00 | 0.50 | 0.21 | 72 | 1014.9 |
| 20260507022018 | 50 | 0 | 0.0 | 1.0 | 0.00 | 0.50 | 0.21 | 72 | 1014.9 |
| 20260507021540 | 50 | 0 | 0.0 | 1.0 | 0.00 | 0.50 | 0.21 | 72 | 1014.9 |
| 20260507021020 | 50 | 0 | 0.0 | 1.0 | 0.00 | 0.50 | 0.21 | 72 | 1014.9 |
| 20260507020520 | 50 | 0 | 0.0 | 1.0 | 0.00 | 0.50 | 0.21 | 73 | 1014.7 |
| 20260507020049 | 50 | 0 | 0.0 | 1.0 | 0.00 | 0.50 | 0.21 | 74 | 1014.7 |
| 20260507015519 | 50 | 0 | 0.0 | 1.0 | 0.00 | 0.61 | 0.21 | 73 | 1014.7 |
| 20260507015019 | 51 | 289 | 0.0 | 1.0 | 0.00 | 0.61 | 0.21 | 73 | 1014.6 |
| 20260507014536 | 51 | 289 | 0.0 | 2.0 | 0.00 | 0.61 | 0.21 | 72 | 1014.6 |
| 20260507014018 | 51 | 289 | 0.0 | 2.0 | 0.00 | 0.61 | 0.21 | 71 | 1014.6 |
| 20260507013519 | 51 | 289 | 0.0 | 2.0 | 0.00 | 0.61 | 0.21 | 72 | 1014.4 |
| 20260507013039 | 51 | 0 | 0.0 | 1.0 | 0.00 | 0.61 | 0.21 | 73 | 1014.4 |
| 20260507012519 | 51 | 0 | 0.0 | 1.0 | 0.00 | 0.61 | 0.21 | 72 | 1014.3 |
| 20260507012020 | 51 | 0 | 0.0 | 1.0 | 0.00 | 0.61 | 0.21 | 71 | 1014.2 |
| 20260507011545 | 51 | 0 | 0.0 | 2.0 | 0.00 | 0.61 | 0.21 | 71 | 1014.1 |
| 20260507011019 | 51 | 0 | 0.0 | 2.0 | 0.00 | 0.61 | 0.21 | 70 | 1014.1 |
| 20260507010519 | 51 | 0 | 0.0 | 2.0 | 0.00 | 0.61 | 0.21 | 70 | 1014.0 |
| 20260507010039 | 52 | 0 | 0.0 | 2.0 | 0.00 | 0.61 | 0.21 | 71 | 1014.1 |
| 20260507005519 | 52 | 288 | 0.0 | 2.0 | 0.00 | 0.70 | 0.21 | 71 | 1014.1 |
| 20260507005020 | 52 | 0 | 0.0 | 0.0 | 0.00 | 0.70 | 0.21 | 71 | 1014.0 |
| 20260507004539 | 52 | 0 | 0.0 | 2.0 | 0.00 | 0.70 | 0.21 | 71 | 1014.1 |
| 20260507004020 | 52 | 0 | 0.0 | 3.0 | 0.00 | 0.70 | 0.21 | 69 | 1014.1 |
| 20260507003517 | 53 | 0 | 0.0 | 3.0 | 0.00 | 0.70 | 0.21 | 69 | 1014.0 |
| 20260507003039 | 53 | 288 | 0.0 | 3.0 | 0.00 | 0.70 | 0.21 | 68 | 1013.9 |
| 20260507002518 | 53 | 288 | 0.0 | 3.0 | 0.00 | 0.70 | 0.21 | 67 | 1013.8 |
| 20260507002020 | 53 | 0 | 0.0 | 3.0 | 0.00 | 0.70 | 0.21 | 67 | 1013.8 |
| 20260507001605 | 54 | 288 | 1.0 | 4.0 | 0.00 | 0.70 | 0.21 | 65 | 1013.7 |
| 20260507001024 | 54 | 288 | 1.0 | 6.0 | 0.00 | 0.70 | 0.21 | 64 | 1013.6 |
| 20260507000519 | 54 | 281 | 2.0 | 6.0 | 0.00 | 0.70 | 0.21 | 63 | 1013.6 |
| 20260507000042 | 55 | 286 | 2.0 | 6.0 | 0.00 | 0.70 | 0.21 | 62 | 1013.5 |
| 20260506235523 | 55 | 288 | 2.0 | 8.0 | 0.00 | 0.95 | 0.21 | 65 | 1013.5 |
| 20260506235019 | 55 | 290 | 3.0 | 8.0 | 0.00 | 0.95 | 0.21 | 57 | 1013.5 |
| 20260506234540 | 56 | 277 | 2.0 | 6.0 | 0.00 | 0.95 | 0.21 | 57 | 1013.5 |
| 20260506234019 | 56 | 288 | 2.0 | 6.0 | 0.00 | 0.95 | 0.21 | 58 | 1013.3 |
| 20260506233520 | 56 | 284 | 1.0 | 5.0 | 0.00 | 0.95 | 0.21 | 60 | 1013.3 |
| 20260506233039 | 56 | 0 | 1.0 | 6.0 | 0.00 | 0.95 | 0.21 | 62 | 1013.3 |
| 20260506232517 | 56 | 273 | 2.0 | 6.0 | 0.00 | 0.95 | 0.21 | 63 | 1013.3 |
| 20260506232020 | 56 | 291 | 1.0 | 4.0 | 0.00 | 0.95 | 0.21 | 67 | 1013.3 |
| 20260506231542 | 56 | 281 | 1.0 | 4.0 | 0.00 | 0.95 | 0.21 | 63 | 1013.3 |
| 20260506231023 | 56 | 289 | 1.0 | 6.0 | 0.00 | 0.95 | 0.21 | 62 | 1013.5 |
| 20260506230522 | 56 | 284 | 1.0 | 6.0 | 0.00 | 0.95 | 0.21 | 63 | 1013.5 |
| 20260506230052 | 56 | 288 | 1.0 | 4.0 | 0.00 | 0.95 | 0.21 | 63 | 1013.5 |
| 20260506225520 | 56 | 292 | 1.0 | 4.0 | 0.00 | 1.12 | 0.21 | 61 | 1013.4 |
| 20260506225019 | 56 | 290 | 2.0 | 4.0 | 0.00 | 1.12 | 0.21 | 62 | 1013.4 |
| 20260506224535 | 56 | 290 | 2.0 | 4.0 | 0.00 | 1.12 | 0.21 | 61 | 1013.6 |
| 20260506224021 | 56 | 292 | 1.0 | 4.0 | 0.00 | 1.12 | 0.21 | 63 | 1013.6 |
| 20260506223519 | 56 | 302 | 1.0 | 4.0 | 0.00 | 1.12 | 0.21 | 61 | 1013.6 |
| 20260506223038 | 57 | 299 | 1.0 | 4.0 | 0.00 | 1.12 | 0.21 | 60 | 1013.5 |
| 20260506222523 | 57 | 294 | 2.0 | 6.0 | 0.00 | 1.12 | 0.21 | 59 | 1013.6 |
| 20260506222021 | 57 | 296 | 2.0 | 6.0 | 0.00 | 1.12 | 0.21 | 58 | 1013.8 |
| 20260506221535 | 57 | 275 | 1.0 | 4.0 | 0.00 | 1.12 | 0.21 | 62 | 1013.8 |
| 20260506221021 | 57 | 286 | 2.0 | 5.0 | 0.00 | 1.12 | 0.21 | 58 | 1013.8 |
| 20260506220521 | 57 | 291 | 1.0 | 7.0 | 0.00 | 1.12 | 0.21 | 58 | 1013.8 |
| 20260506220041 | 57 | 286 | 2.0 | 7.0 | 0.00 | 1.12 | 0.21 | 59 | 1013.7 |
| 20260506215521 | 58 | 267 | 2.0 | 4.0 | 0.00 | 1.12 | 0.21 | 58 | 1013.7 |
| 20260506215020 | 58 | 305 | 2.0 | 4.0 | 0.00 | 1.12 | 0.21 | 58 | 1013.8 |
| 20260506214539 | 58 | 252 | 1.0 | 3.0 | 0.00 | 1.12 | 0.21 | 59 | 1013.8 |
| 20260506214019 | 58 | 261 | 1.0 | 5.0 | 0.00 | 1.12 | 0.21 | 57 | 1013.8 |
| 20260506213523 | 58 | 275 | 1.0 | 5.0 | 0.00 | 1.12 | 0.21 | 57 | 1013.7 |
| 20260506213038 | 58 | 250 | 1.0 | 4.0 | 0.00 | 1.12 | 0.21 | 60 | 1013.5 |
| 20260506212521 | 58 | 252 | 1.0 | 6.0 | 0.00 | 1.12 | 0.21 | 58 | 1013.4 |
| 20260506212020 | 58 | 0 | 1.0 | 6.0 | 0.00 | 1.12 | 0.21 | 60 | 1013.4 |